Regional Weather Roundup
Issued by NWS State College, PA

Home | Current Version | Previous Version | Text Only | Print | Product List | Glossary Off
Versions: 1 2 3 4 5 6 7 8 9 10 11 12 13 14 15 16 17 18 19 20 21 22 23 24 25 26 27 28 29 30 31 32 33 34 35 36 37 38 39 40 41 42 43 44 45 46 47 48 49 50

000
ASUS41 KCTP 261910
RWRCTP

REGIONAL WEATHER ROUNDUP
NATIONAL WEATHER SERVICE STATE COLLEGE PA
300 PM EDT FRI MAY 26 2017

Note: "fair" indicates few or no clouds below 12,000 feet with no
significant weather and/or obstructions to visibility.

* = STATION THAT DOES NOT REPORT PRECIPITATION /E.G. RAIN...SNOW...ETC/
    THUNDER OR FOG.

PAZ002>004-007>009-013>016-020>023-029>032-262000-
WESTERN PENNSYLVANIA

CITY           SKY/WX    TMP DP  RH WIND       PRES   REMARKS
ERIE           CLOUDY    57  53  86 W14G20    29.84R
MEADVILLE      CLOUDY    57  54  89 W12G17    29.86R
FRANKLIN*      PTSUNNY   61  52  72 W14       29.86R
NEW CASTLE     CLOUDY    62  53  72 W10       29.88R
BEAVER COUNTY  CLOUDY    61  54  77 W9        29.88R
BUTLER*        CLOUDY    63  52  67 W10G17    29.87R
PITTSBURGH INT CLOUDY    63  56  78 W13       29.87R
PITTSBURGH     CLOUDY    63  52  67 W14G22    29.87R
INDIANA*       PTSUNNY   64  54  68 W9G21     29.86R
LATROBE        PTSUNNY   63  55  77 W12G23    29.87R
WASHINGTON CO* CLOUDY    64  55  72 NW12G17   29.90S
$$

PAZ004>006-010>012-017>019-024>028-033>037-041-042-045-046-049>053-262000-
CENTRAL PENNSYLVANIA

CITY           SKY/WX    TMP DP  RH WIND       PRES   REMARKS
BRADFORD       CLOUDY    58  52  80 W13       29.80R
DUBOIS         CLOUDY    57  53  86 W9        29.81R
CLEARFIELD     CLOUDY    62  55  77 W13G18    29.80R
JOHNSTOWN      CLOUDY    56  54  93 W14G22    29.84R
ALTOONA        CLOUDY    62  55  77 W10       29.82R
STATE COLLEGE  CLOUDY    64  52  63 W20       29.78R
WILLIAMSPORT   CLOUDY    69  53  56 NW15      29.69R
SELINSGROVE    CLOUDY    69  54  58 W9G22     29.73R
FT INDIANTOWN  PTSUNNY   71  53  53 W6G25     29.71R
CAPITAL CITY   PTSUNNY   73  52  47 NW17G24   29.72R
HARRISBURG     PTSUNNY   73  54  51 NW21      29.70S
YORK           MOSUNNY   71  58  63 W16G25    29.73S
$$

PAZ038>040-043-044-047-048-054-055-060>062-067>071-262000-
EASTERN PENNSYLVANIA

CITY           SKY/WX    TMP DP  RH WIND       PRES   REMARKS
SCRANTON       LGT RAIN  67  55  65 W8        29.67R
MOUNT POCONO   CLOUDY    62  54  74 NW12      29.69R
ALLENTOWN      PTSUNNY   72  54  53 W17G25    29.66R
QUAKERTOWN*    MOCLDY    70  57  64 W13G22    29.69R
READING        PTSUNNY   70  59  68 W13G21    29.68R
LANCASTER      PTSUNNY   72  57  59 W16G31    29.70R
COATESVILLE    MOCLDY    70  55  60 W12G20    29.71S
POTTSTOWN      LGT RAIN  68  55  63 NW12G18   29.69R
BLUE BELL      PTSUNNY   70  55  60 W8G16     29.68S
DOYLESTOWN     MOSUNNY   75  58  55 W14G25    29.65S
WILLOW GROVE   NOT AVBL
NORTH PHILA    MOSUNNY   78  57  48 W16G26    29.67R
PHILADELPHIA   LGT RAIN  73  54  51 W17G23    29.68R
$$



USA.gov is the U.S. government's official web portal to all federal, state and local government web resources and services.